Find Starlink 31779

NORAD ID: 59744 Int'l Des: 2024-090 Owner: SPXS Country: US Constellation: starlink operational
LEOCIRCULAR

リアルタイム位置

3D地球を読み込み中...

Starlink 31779について

説明を読み込み中...

次回通過

Passes for default location (London). Set your location on the main map for personalized predictions.

高度履歴

Loading altitude history...

軌道要素

1 59744U 24090Q 26125.25623053 .00001117 00000-0 50109-4 0 9995
2 59744 42.9997 223.8343 0000635 248.7262 111.3522 15.27582060112095
Epoch: May 5, 2026 • Age: 7 hours

現在のステータス

高度 492.7 km
速度 7.62 km/s
衛星直下点 -35.30°S, 25.8°E
打ち上げ日 May 13, 2024
運用期間 1.9 years
タイプ internet

技術仕様

分類 Payload
質量 730.00 kg
乾燥質量 700.00 kg
総質量 730.00 kg
長さ 0.30 m
直径 4.10 m
スパン 29.00 m
形状 Box + pan
製造者 SPXS
バスタイプ Starlink V2M
フェーズステータス In Orbit
所有者/国 SPXS/US

Most Searched